Regional Weather Roundup
Issued by NWS

Home | Current Version | Previous Version | Graphics & Text | Print | Product List | Glossary Off
Versions: 1 2 3 4 5 6 7 8 9 10 11 12 13 14 15 16 17 18 19 20 21 22 23 24 25 26 27 28 29 30 31 32 33 34 35 36 37 38 39 40 41 42 43 44 45 46 47 48 49 50

000
ASUS43 KDMX 201601
RWRIA

WEATHER ROUNDUP FOR IOWA
NATIONAL WEATHER SERVICE DES MOINES IA
1100 AM CDT FRI OCT 20 2017

NOTE: "FAIR" INDICATES FEW OR NO CLOUDS BELOW 12,000 FEET WITH NO
SIGNIFICANT WEATHER AND/OR OBSTRUCTIONS TO VISIBILITY.

* - THESE STATIONS ARE NOT NWS STATIONS...THUS NOT UNDER NWS
QUALITY CONTROL.  THEY ALSO DO NOT REPORT WEATHER SUCH
AS PRECIPITATION OR FOG.

IAZ001>003-012>014-020>022-031>034-043>046-201700-
   NORTHWEST IOWA

CITY           SKY/WX    TMP DP  RH WIND       PRES   REMARKS
CARROLL *      SUNNY     82  70  65 S22G29    29.93F HX  86
CHEROKEE *     SUNNY     66  56  69 S18G25    29.87F
DENISON *      SUNNY     66  54  63 S17G31    29.92F
LE MARS *      SUNNY     63  54  72 S15G26    29.83F
ORANGE CITY *  SUNNY     64  55  72 S18G28    29.83F
SHELDON *      SUNNY     66  52  59 S16G24    29.82F
SIOUX CITY     SUNNY     67  55  65 S16G26    29.85F
SPENCER        SUNNY     69  52  54 S20G31    29.87F
STORM LAKE *   SUNNY     68  54  60 S26G36    29.89F
$$

IAZ055>058-069>071-079>083-090>094-201700-
   SOUTHWEST IOWA

CITY           SKY/WX    TMP DP  RH WIND       PRES   REMARKS
ATLANTIC *     SUNNY     64  54  68 S12       29.96F
AUDUBON *      SUNNY     64  55  72 S14G22    29.97F
CLARINDA *     CLOUDY    66  55  68 S16G25    30.00F
COUNCIL BLFS * CLOUDY    66  57  72 S16G24    29.92F
CRESTON *      SUNNY     64  54  68 S17       30.02F
HARLAN  *      SUNNY     66  54  63 S20G25    29.97F
LAMONI         SUNNY     63  54  72 S9        30.05F
RED OAK *      CLOUDY    68  55  64 S20G29    29.96F
SHENANDOAH *   MOSUNNY   68  55  64 S14G24    29.96F
$$

IAZ047>049-059>061-072>074-084-201700-
   CENTRAL IOWA

CITY           SKY/WX    TMP DP  RH WIND       PRES   REMARKS
AMES           SUNNY     69  54  58 S17G26    30.00F
ANKENY *       SUNNY     68  54  60 S17       30.02F
BOONE *        SUNNY     68  54  60 S17       29.98F
CHARITON *     SUNNY     66  54  63 S16       30.04F
DES MOINES     PTSUNNY   69  53  56 S12G23    30.01F
GRINNELL*      SUNNY     66  54  64 S12       30.06F
KNOXVILLE *    SUNNY     68  52  56 SW13G22   30.03F
MARSHALLTOWN   SUNNY     68  54  60 S15       30.01F
NEWTON *       SUNNY     68  52  56 S16G22    30.04F
PELLA *        SUNNY     70  53  54 S10       30.06F
PERRY *          N/A     69  53  55 S15G22    29.98F
$$

IAZ004>006-015-016-023>025-035-036-201700-
   NORTH CENTRAL IOWA

CITY           SKY/WX    TMP DP  RH WIND       PRES   REMARKS
ALGONA *       SUNNY     68  54  60 S21G26    29.92F
CLARION *      SUNNY     66  55  68 S18G25    29.96F
ESTHERVILLE    SUNNY     63  54  72 S18G25    29.88F
FORT DODGE *   SUNNY     67  53  61 S18G26    29.95F
MASON CITY     SUNNY     66  53  63 S13G23    29.98F
FOREST CITY *    N/A     66  52  59 S16G23    29.96S
WEBSTER CITY * SUNNY     70  52  52 S14G21    29.95F
IOWA FALLS *     N/A     67  54  63 S15G22    30.01F
$$

IAZ007>011-017>019-026>030-037>042-050>054-066-201700-
   NORTHEAST IOWA

CITY           SKY/WX    TMP DP  RH WIND       PRES   REMARKS
CEDAR RAPIDS   SUNNY     66  54  65 S9        30.07F
CHARLES CITY * SUNNY     66  54  63 S12G20    30.01F
CLINTON *      SUNNY     70  55  59 SW10      30.13F
DECORAH *      SUNNY     66  52  59 S12G18    30.02F
DUBUQUE        SUNNY     64  53  67 SW15      30.10F
MONTICELLO *   SUNNY     68  54  60 S10       30.09F
OELWEIN *      SUNNY     66  54  63 SW13G18   30.05F
WATERLOO       SUNNY     66  53  63 S14       30.02F
$$

IAZ064-065-067-068-078-201700-
   EAST CENTRAL IOWA

CITY           SKY/WX    TMP DP  RH WIND       PRES   REMARKS
DAVENPORT      SUNNY     70  53  54 S12       30.14F
IOWA CITY      SUNNY     68  54  60 S8        30.11F
MUSCATINE *    SUNNY     68  54  60 S8        30.12S
QUAD CITIES    SUNNY     70  53  54 S10       30.12F
$$

IAZ062-063-075>077-085>089-095>099-201700-
   SOUTHEAST IOWA

CITY           SKY/WX    TMP DP  RH WIND       PRES   REMARKS
BURLINGTON     SUNNY     67  54  63 S9        30.13F
FAIRFIELD *    SUNNY     66  52  59 S10       30.09F
FORT MADISON * SUNNY     68  54  60 S7        30.13F
KEOKUK *       SUNNY     66  54  63 S7        30.12F
OSKALOOSA *      N/A     67  54  63 S10       30.07F
OTTUMWA        SUNNY     67  54  63 S12       30.07F
WASHINGTON *   SUNNY     68  54  60 S12       30.11S
$$

ABBREVIATIONS USED IN REMARKS
   TC - TEMPERATURES IN CELSIUS
  WCI - WIND CHILL INDEX
   HX - HEAT INDEX
  VSB - VISIBILITY
$$





USA.gov is the U.S. government's official web portal to all federal, state and local government web resources and services.